Location: Antignac
(42.8245°N, 0.6000°E)
Time: 20:52:24
(UTC+00:00)

Daily predictions for brighter satellites

Satellite Brightness Start Highest point End
(mag) Time Altitude Azimuth Time Altitude Azimuth Time Altitude Azimuth
Cosmos 1356 Rocket 3.6 17:20:54 10° SSW 17:25:08 82° W 17:29:27 10° N
CORIOLIS 4.1 17:20:26 10° SSE 17:25:45 75° ENE 17:31:07 10° N
ADEOS Rocket 3.7 17:20:49 10° N 17:27:06 70° WNW 17:34:04 10° SSW
CZ-4 R/B 2.9 17:25:04 10° ESE 17:27:25 16° ENE 17:29:45 10° NNE
Cosmos 1825 Rocket 4.1 17:24:53 10° N 17:29:05 39° ENE 17:33:12 10° SE
BREEZE-M DEB (TANK) 4.5 17:26:41 10° W 17:29:57 44° N 17:40:05 10° ENE
ERS-2 2.0 17:26:28 10° NNE 17:30:06 77° ESE 17:33:44 10° S
YAOGAN 1 4.1 17:28:28 10° ESE 17:31:14 17° ENE 17:34:01 10° NNE
USA 281 3.5 17:25:22 10° SSE 17:31:55 79° WSW 17:38:32 10° NNW
Lacrosse 5 3.6 17:28:40 10° WNW 17:32:49 25° NNW 17:36:58 10° NNE
Cosmos 2219 4.4 17:31:05 10° N 17:35:36 23° NE 17:40:06 10° ESE
AQUARIUS 4.3 17:31:19 10° SSE 17:35:49 82° WSW 17:40:20 10° NNW
Cosmos 1655 Rocket 4.4 17:33:55 10° NNW 17:40:19 73° W 17:46:40 10° S
Cosmos 1400 Rocket 4.1 17:37:56 10° SE 17:41:04 21° E 17:44:13 10° NE
CZ-4B R/B 1.3 17:38:11 10° NNE 17:41:27 85° WNW 17:44:37 10° SSW
SAR-Lupe-4 3.7 17:38:25 10° NNE 17:41:58 54° E 17:45:28 10° S
Cosmos 44 3.7 17:38:23 10° S 17:42:25 36° ESE 17:46:41 10° NE
Cosmos 1726 Rocket 3.9 17:39:58 10° SSE 17:44:01 40° E 17:48:07 10° NNE
Okean-O 3.5 17:40:35 10° SE 17:44:23 29° ENE 17:48:12 10° N
Cosmos 1758 Rocket 3.5 17:41:59 10° N 17:46:25 79° E 17:50:46 10° S
Meteor 2-14 Rocket 4.4 17:43:19 10° N 17:49:29 72° E 17:55:35 10° SSE
Meteor 2-21 4.4 17:47:07 10° N 17:53:19 82° E 17:59:25 10° S
CZ-4B R/B 4.5 17:50:07 10° S 17:55:30 47° W 18:00:53 10° NNW
Aureole 3 3.7 17:53:55 10° SSE 17:56:53 28° E 17:59:34 10° NNE
FALCON 9 DEB 3.7 17:55:09 10° SSW 17:58:08 35° SE 17:59:55 19° E
Cosmos 1331 Rocket 3.9 17:53:05 10° SSW 17:58:13 75° ESE 18:03:23 10° NNE
Cosmos 1606 Rocket 3.5 17:54:01 10° S 17:58:21 77° E 18:02:44 10° N
OAO 3 Rocket 4.4 17:54:35 10° WSW 17:58:50 32° S 18:02:49 11° ESE
SAR-Lupe-1 4.0 17:56:04 10° NNE 17:59:41 86° ESE 18:03:16 10° SSW
Cosmos 2228 2.9 17:58:25 10° S 18:02:39 90° W 18:06:56 10° N
GENESIS II 4.2 17:58:51 10° SSW 18:02:52 77° ESE 18:06:55 10° NE
SKYMED 2 3.5 17:59:10 10° NNE 18:03:31 72° ESE 18:07:50 10° S
ATLAS 5 CENTAUR R/B 4.2 18:01:36 10° NW 18:03:38 13° NNW 18:05:46 10° N
SL-4 R/B 3.5 18:02:40 10° WNW 18:05:32 22° N 18:08:01 12° NE
FALCON 9 DEB 3.3 18:02:39 10° SSW 18:05:43 45° SE 18:07:15 24° ENE
CZ-2C R/B 3.6 18:01:37 10° SE 18:07:03 43° ENE 18:12:25 10° N
Cosmos 292 Rocket 3.7 18:02:40 10° S 18:07:24 68° ESE 18:12:12 10° NNE
ARGOS 4.1 18:09:08 16° ESE 18:12:05 25° ENE 18:16:27 10° N
Cosmos 1346 Rocket 4.3 18:10:46 10° NNE 18:12:50 18° NE 18:12:50 18° NE
FALCON 9 DEB 3.2 18:10:36 10° SW 18:13:45 51° SE 18:15:00 30° E
Cosmos 2227 Rocket 2.9 18:09:02 10° N 18:14:07 33° NE 18:17:08 20° ESE
Meteor 2-10 Rocket 4.3 18:09:46 10° SSE 18:14:20 29° E 18:18:46 10° NNE
SeaSat 1 3.4 18:14:54 21° E 18:16:53 28° NE 18:21:05 10° N
Cosmos 1892 3.5 18:15:08 10° NNE 18:18:34 30° ENE 18:19:18 28° E
CZ-2D R/B 3.1 18:14:55 10° SSE 18:18:43 78° ENE 18:22:32 10° N
Cosmos 1656 4.0 18:15:54 10° S 18:21:04 43° ESE 18:26:21 10° NE
USA 215 4.2 18:17:29 18° ENE 18:21:20 31° NNE 18:26:57 10° NW
Meteor 2-16 Rocket 4.4 18:17:19 10° N 18:23:27 89° E 18:29:33 10° S
ATLAS 2AS CENTAUR R/B 4.4 18:19:28 10° NNW 18:24:33 18° NNE 18:27:53 14° NE
CSL-04 Rocket 4.0 18:19:36 10° SE 18:24:49 44° ENE 18:30:02 10° N
Cosmos 2058 Rocket 3.0 18:20:30 10° S 18:24:56 72° E 18:29:27 10° NNE
CZ-4 R/B 4.5 18:20:53 10° SSE 18:25:02 83° W 18:29:14 10° NNW
Cosmos 968 Rocket 4.1 18:20:31 10° N 18:25:15 33° ENE 18:26:57 27° E
Cosmos 1302 Rocket 3.9 18:21:31 10° S 18:26:43 69° ESE 18:31:59 10° NNE
Cosmos 1953 Rocket 3.8 18:23:50 10° NNW 18:28:14 73° W 18:32:38 10° S
FALCON 9 DEB 2.8 18:25:15 10° SW 18:28:27 78° SE 18:29:11 49° ENE
Cosmos 1300 3.4 18:25:39 10° SSW 18:29:23 55° W 18:33:09 10° N
Cosmos 1486 Rocket 4.4 18:26:46 10° N 18:31:48 40° ENE 18:33:47 29° ESE
Cosmos 1697 Rocket 3.4 18:28:13 10° SSE 18:32:53 28° ESE 18:32:53 28° ESE
Helios 1A Rocket 3.2 18:32:22 10° S 18:36:29 68° WSW 18:40:36 10° NNW
GEOS 3 Rocket 3.6 18:36:45 24° SE 18:39:58 68° NE 18:45:19 10° NNW
S3M 4.0 18:36:10 10° SSE 18:42:04 55° E 18:48:03 10° NNE
Cosmos 1939 Rocket 4.4 18:40:36 10° SSW 18:44:19 36° W 18:48:00 10° NNW
DMSP B5D1-3 4.4 18:39:10 10° NNE 18:44:19 68° ESE 18:49:26 10° S
Timation 2 Rocket 4.2 18:37:43 10° NNW 18:44:20 82° WSW 18:51:10 10° SSE
CRYOSAT 2 4.3 18:41:01 10° NNE 18:45:48 56° E 18:50:34 10° S
Milstar 3 4.1 18:43:45 10° SW 18:49:05 25° S 18:51:54 19° SE
COSMO-SKYMED 1 4.2 18:47:31 10° N 18:51:27 34° WNW 18:55:23 10° SW
Cosmos 1417 Rocket 4.4 18:48:10 10° S 18:54:23 85° E 19:00:44 10° N
Cosmos 2297 Rocket 2.1 18:49:04 10° NNW 18:54:46 79° ENE 18:57:46 29° SSE
H-2A R/B 2.0 18:52:59 10° SSE 18:58:21 82° ENE 19:03:50 10° N
In-Cosmos 22 Rocket 4.2 18:53:02 10° NNW 18:58:23 76° W 19:03:48 10° S
Cosmos 2058 3.4 18:55:02 10° N 18:57:58 44° NNE 18:57:58 44° NNE
MOS 1 Rocket 3.2 18:55:15 10° NNE 18:59:53 87° ESE 19:04:48 10° SSW
CSL-04 Debris 4.1 18:55:59 10° SSE 19:01:24 88° WSW 19:06:54 10° NNW
CZ-4 R/B 2.5 18:58:23 10° S 19:02:07 41° W 19:05:49 10° NNW
Cosmos 1340 3.4 18:59:10 10° NNW 19:02:51 51° W 19:05:57 14° S
Aureole 3 Rocket 4.2 19:00:37 10° SW 19:04:02 40° WNW 19:08:32 10° N
YAOGAN 1 3.5 19:02:46 10° S 19:06:57 48° W 19:11:10 10° NNW
Cosmos 1992 Rocket 3.9 19:04:23 10° S 19:09:12 64° SE 19:09:12 64° SE
SJ-11-01 4.5 19:09:49 21° S 19:12:52 70° WSW 19:17:33 10° NNW
Cosmos 1553 Rocket 4.5 19:07:06 10° SSW 19:13:24 62° W 19:19:40 10° N
Ariane Rocket 4.3 19:18:51 27° NNE 19:18:51 27° NNE 19:21:20 10° N
Lacrosse 5 3.9 19:14:16 10° NW 19:17:23 16° N 19:18:09 16° N
Cosmos 2219 3.6 19:14:32 10° NNW 19:20:13 62° WSW 19:23:22 27° S
BREEZE-M R/B 4.4 19:17:26 10° WNW 19:22:03 51° NNE 19:23:14 46° NE
Atlas Centaur 2 4.0 19:23:43 10° SW 19:30:48 30° S 19:31:15 30° SSE
Cosmos 2082 3.9 19:25:26 10° NNW 19:30:17 60° NNE 19:30:17 60° NNE
CZ-4C R/B 4.3 19:32:39 10° NNW 19:37:16 21° NNE 19:37:16 21° NNE
ARGOS 4.0 19:50:40 38° SW 19:52:02 46° W 19:57:17 10° NNW
SeaSat 1 3.5 19:54:42 42° W 19:54:42 42° W 19:58:55 10° NW
Cosmos 2227 Rocket 3.3 19:53:00 10° NW 19:58:13 39° WSW 19:59:01 37° SW
NOSS 3-3 (A) 4.4 19:57:06 10° SW 20:01:36 53° WSW 20:01:36 53° WSW
NOSS 3-3 (C) 4.4 19:57:11 10° SW 20:01:43 53° WSW 20:01:43 53° WSW
USA 215 3.6 20:04:50 58° NNW 20:04:50 58° NNW 20:10:11 10° NW
Cosmos 2263 Rocket 4.3 20:04:24 10° NNW 20:05:55 18° N 20:05:55 18° N
Cosmos 1697 Rocket 4.1 20:11:21 10° SW 20:14:43 32° WSW 20:14:43 32° WSW
ATLAS 2AS CENTAUR R/B 3.8 20:10:25 10° NNW 20:15:19 36° N 20:15:19 36° N
